sat.trackr.live / text

‹ back to catalog

CHECKMATE 7

NORAD 56166 · 2023-050E

PAYLOAD ACTIVE UNKNOWN

§ Identity

Operator
Country
US
Launch date
2023-04-02
Launch site
AFWTR
Launch vehicle
Mass (kg)
RCS (m²)

External: N2YO · Heavens-Above · Gunter

§ Orbital elements

Epoch: 2026-05-24T23:04:58.541952Z

Period
103.83 min
Inclination
80.9996°
Eccentricity
0.0013329
Mean motion
13.86945525 rev/d
Perigee alt
929.6 km
Apogee alt
949.1 km
Semi-major
7,317.5 km
B*
1.6729e-5
RAAN
93.5244°
Arg perigee
14.2475°
Mean anomaly
345.9055°
Rev number
15,889

§ Raw data

CHECKMATE 71 56166U 23050E   26144.96178868  .00000031  00000+0  16729-4 0  99962 56166  80.9996  93.5244 0013329  14.2475 345.9055 13.86945525158895

JSON: /api/v1/satellites/56166 · /tle

For live sub-satellite position, see the globe view (requires WebGL).

§ Visibility from observer

Set your observer location to see the next 7 days of passes ≥ 10°. The values pass through the URL so the page stays shareable.

No JS? Fill the form by hand. The geolocation button needs JavaScript.